AWQ666 WIII-WAMM

Flight info

Callsign AWQ666
Flight time 2h 51m
Altitude 37000
Route WIII/07L N0449F370 EGUK2A EGUKO T9 ARITO ARIT1D WAMM/36
Aircraft A320/M-SDE2E3FGHIRWXY/LB1

Departure

Time 2026-04-21 10:49
Airport Soekarno-Hatta International Airport (WIII)

Arrival

Time 2026-04-21 13:41
Airport Sam Ratulangi International Airport (WAMM)
Time Latitude Longitude Altitude Speed Heading
2026-04-21 10:19 -6.12097 106.65655 38 ft 0 kts 257°
2026-04-21 10:34 -6.12093 106.65675 38 ft 4 kts 257°
2026-04-21 10:34 -6.12088 106.65702 35 ft 4 kts 263°
2026-04-21 10:34 -6.12087 106.65727 34 ft 4 kts 287°
2026-04-21 10:34 -6.12096 106.65742 36 ft 0 kts 339°
2026-04-21 10:38 -6.12093 106.65740 38 ft 1 kts 329°
2026-04-21 10:38 -6.12093 106.65739 38 ft 0 kts 329°
2026-04-21 10:38 -6.12090 106.65739 38 ft 1 kts 335°
2026-04-21 10:39 -6.12089 106.65738 38 ft 1 kts 338°
2026-04-21 10:40 -6.12057 106.65726 38 ft 8 kts 339°
2026-04-21 10:40 -6.11993 106.65701 36 ft 11 kts 339°
2026-04-21 10:40 -6.11920 106.65673 36 ft 12 kts 339°
2026-04-21 10:40 -6.11836 106.65640 37 ft 14 kts 337°
2026-04-21 10:41 -6.11748 106.65605 37 ft 11 kts 338°
2026-04-21 10:41 -6.11674 106.65575 37 ft 13 kts 338°
2026-04-21 10:41 -6.11641 106.65503 36 ft 13 kts 249°
2026-04-21 10:41 -6.11675 106.65418 37 ft 13 kts 249°
2026-04-21 10:42 -6.11709 106.65332 38 ft 13 kts 248°
2026-04-21 10:42 -6.11744 106.65244 36 ft 14 kts 248°
2026-04-21 10:42 -6.11780 106.65152 38 ft 14 kts 248°
2026-04-21 10:42 -6.11818 106.65056 36 ft 15 kts 248°
2026-04-21 10:43 -6.11858 106.64955 37 ft 16 kts 248°
2026-04-21 10:43 -6.11902 106.64844 35 ft 18 kts 248°
2026-04-21 10:43 -6.11949 106.64725 38 ft 19 kts 248°
2026-04-21 10:43 -6.12000 106.64600 38 ft 20 kts 246°
2026-04-21 10:44 -6.12053 106.64467 38 ft 19 kts 247°
2026-04-21 10:44 -6.12101 106.64347 38 ft 16 kts 248°
2026-04-21 10:44 -6.12144 106.64237 38 ft 18 kts 249°
2026-04-21 10:44 -6.12176 106.64157 36 ft 9 kts 248°
2026-04-21 10:45 -6.12197 106.64104 38 ft 7 kts 248°
2026-04-21 10:45 -6.12214 106.64061 38 ft 6 kts 248°
2026-04-21 10:45 -6.12230 106.64021 38 ft 8 kts 248°
2026-04-21 10:45 -6.12249 106.63974 38 ft 6 kts 248°
2026-04-21 10:46 -6.12251 106.63920 38 ft 11 kts 292°
2026-04-21 10:46 -6.12179 106.63881 39 ft 13 kts
2026-04-21 10:46 -6.12097 106.63902 36 ft 11 kts
2026-04-21 10:46 -6.12077 106.63922 38 ft 0 kts 68°
2026-04-21 10:48 -6.12075 106.63928 38 ft 8 kts 68°
2026-04-21 10:48 -6.11954 106.64230 36 ft 83 kts 69°
2026-04-21 10:49 -6.11771 106.64682 39 ft 123 kts 69°
2026-04-21 10:49 -6.11241 106.66020 91 ft 181 kts 66°
2026-04-21 10:49 -6.10942 106.66826 467 ft 182 kts 67°
2026-04-21 10:49 -6.10311 106.68382 1366 ft 181 kts 61°
2026-04-21 10:50 -6.09826 106.69115 1632 ft 193 kts 51°
2026-04-21 10:50 -6.08873 106.70160 1858 ft 218 kts 45°
2026-04-21 10:50 -6.07711 106.71269 2181 ft 242 kts 44°
2026-04-21 10:50 -6.06432 106.72466 2708 ft 257 kts 44°
2026-04-21 10:51 -6.05124 106.73713 3469 ft 262 kts 45°
2026-04-21 10:51 -6.03805 106.75001 4250 ft 266 kts 46°
2026-04-21 10:51 -6.02481 106.76320 4813 ft 270 kts 46°
2026-04-21 10:51 -6.01156 106.77661 4977 ft 270 kts 46°
2026-04-21 10:52 -5.99842 106.79006 5006 ft 269 kts 47°
2026-04-21 10:52 -5.98536 106.80350 5012 ft 268 kts 47°
2026-04-21 10:52 -5.97232 106.81694 5014 ft 269 kts 47°
2026-04-21 10:52 -5.96012 106.83105 5020 ft 268 kts 58°
2026-04-21 10:53 -5.95096 106.84756 5523 ft 271 kts 63°
2026-04-21 10:53 -5.94189 106.86424 6376 ft 273 kts 62°
2026-04-21 10:53 -5.93262 106.88101 7111 ft 276 kts 62°
2026-04-21 10:53 -5.92323 106.89791 7856 ft 279 kts 62°
2026-04-21 10:54 -5.91374 106.91502 8602 ft 282 kts 62°
2026-04-21 10:54 -5.90416 106.93239 9319 ft 286 kts 62°
2026-04-21 10:54 -5.89450 106.94995 10006 ft 289 kts 62°
2026-04-21 10:54 -5.88460 106.96801 10376 ft 305 kts 62°
2026-04-21 10:55 -5.87400 106.98734 10502 ft 328 kts 62°
2026-04-21 10:55 -5.86262 107.00803 10627 ft 349 kts 62°
2026-04-21 10:55 -5.85063 107.02989 10938 ft 362 kts 62°
2026-04-21 10:55 -5.83854 107.05192 11462 ft 366 kts 62°
2026-04-21 10:56 -5.82619 107.07441 12024 ft 370 kts 62°
2026-04-21 10:56 -5.81368 107.09719 12585 ft 374 kts 62°
2026-04-21 10:56 -5.80106 107.12012 13149 ft 377 kts 62°
2026-04-21 10:56 -5.78830 107.14328 13696 ft 380 kts 62°
2026-04-21 10:57 -5.77541 107.16663 14170 ft 384 kts 61°
2026-04-21 10:57 -5.76240 107.19017 14647 ft 387 kts 61°
2026-04-21 10:57 -5.74927 107.21395 15123 ft 390 kts 61°
2026-04-21 10:57 -5.73606 107.23789 15583 ft 394 kts 61°
2026-04-21 10:58 -5.72274 107.26209 16048 ft 397 kts 61°
2026-04-21 10:58 -5.70936 107.28645 16514 ft 400 kts 61°
2026-04-21 10:58 -5.69587 107.31103 16975 ft 404 kts 61°
2026-04-21 10:58 -5.68226 107.33583 17442 ft 407 kts 61°
2026-04-21 10:59 -5.66854 107.36081 17895 ft 410 kts 61°
2026-04-21 10:59 -5.65470 107.38598 18306 ft 414 kts 61°
2026-04-21 10:59 -5.64091 107.41101 18704 ft 416 kts 61°
2026-04-21 10:59 -5.62685 107.43652 19088 ft 419 kts 61°
2026-04-21 11:00 -5.61269 107.46218 19457 ft 422 kts 60°
2026-04-21 11:00 -5.59842 107.48805 19838 ft 424 kts 60°
2026-04-21 11:00 -5.58411 107.51405 20207 ft 427 kts 60°
2026-04-21 11:00 -5.56973 107.54023 20566 ft 430 kts 60°
2026-04-21 11:01 -5.55526 107.56657 20920 ft 432 kts 60°
2026-04-21 11:01 -5.54070 107.59305 21269 ft 435 kts 60°
2026-04-21 11:01 -5.52605 107.61968 21609 ft 437 kts 60°
2026-04-21 11:02 -5.49644 107.67338 22271 ft 442 kts 60°
2026-04-21 11:02 -5.48152 107.70041 22584 ft 444 kts 60°
2026-04-21 11:02 -5.46649 107.72758 22893 ft 446 kts 60°
2026-04-21 11:02 -5.45142 107.75485 23190 ft 448 kts 60°
2026-04-21 11:03 -5.43626 107.78228 23474 ft 450 kts 59°
2026-04-21 11:03 -5.43302 107.78786 23517 ft 450 kts 58°
2026-04-21 11:03 -5.41666 107.81475 23745 ft 452 kts 56°
2026-04-21 11:03 -5.39899 107.84086 23987 ft 453 kts 53°
2026-04-21 11:04 -5.38077 107.86671 24220 ft 455 kts 53°
2026-04-21 11:04 -5.36249 107.89265 24454 ft 456 kts 53°
2026-04-21 11:04 -5.34415 107.91874 24678 ft 458 kts 53°
2026-04-21 11:04 -5.32579 107.94488 24908 ft 459 kts 53°
2026-04-21 11:05 -5.30735 107.97108 25135 ft 461 kts 53°
2026-04-21 11:05 -5.28885 107.99736 25363 ft 462 kts 53°
2026-04-21 11:05 -5.27025 108.02375 25581 ft 464 kts 53°
2026-04-21 11:05 -5.25160 108.05020 25796 ft 465 kts 53°
2026-04-21 11:06 -5.23317 108.07641 26006 ft 466 kts 53°
2026-04-21 11:06 -5.21444 108.10306 26225 ft 468 kts 54°
2026-04-21 11:06 -5.19543 108.13011 26425 ft 469 kts 54°
2026-04-21 11:06 -5.17684 108.15653 26627 ft 470 kts 53°
2026-04-21 11:07 -5.15791 108.18340 26823 ft 472 kts 53°
2026-04-21 11:07 -5.13893 108.21034 27012 ft 473 kts 53°
2026-04-21 11:07 -5.11993 108.23731 27201 ft 474 kts 53°
2026-04-21 11:07 -5.10088 108.26436 27381 ft 475 kts 53°
2026-04-21 11:08 -5.08171 108.29155 27566 ft 476 kts 54°
2026-04-21 11:08 -5.06254 108.31875 27726 ft 478 kts 54°
2026-04-21 11:08 -5.04332 108.34600 27885 ft 479 kts 53°
2026-04-21 11:08 -5.02406 108.37326 28090 ft 479 kts 53°
2026-04-21 11:09 -5.00481 108.40053 28345 ft 478 kts 54°
2026-04-21 11:09 -4.98588 108.42732 28588 ft 477 kts 53°
2026-04-21 11:09 -4.96672 108.45446 28812 ft 476 kts 53°
2026-04-21 11:09 -4.94733 108.48194 29055 ft 476 kts 54°
2026-04-21 11:10 -4.92850 108.50866 29303 ft 475 kts 54°
2026-04-21 11:10 -4.90948 108.53569 29550 ft 474 kts 54°
2026-04-21 11:10 -4.89043 108.56274 29804 ft 474 kts 54°
2026-04-21 11:10 -4.87144 108.58967 30034 ft 473 kts 53°
2026-04-21 11:11 -4.85245 108.61658 30247 ft 472 kts 53°
2026-04-21 11:11 -4.83347 108.64346 30463 ft 472 kts 54°
2026-04-21 11:11 -4.81458 108.67028 30682 ft 471 kts 54°
2026-04-21 11:11 -4.79564 108.69709 30907 ft 470 kts 54°
2026-04-21 11:12 -4.77671 108.72383 31125 ft 470 kts 54°
2026-04-21 11:12 -4.75783 108.75053 31350 ft 469 kts 53°
2026-04-21 11:12 -4.73899 108.77719 31581 ft 468 kts 53°
2026-04-21 11:12 -4.72023 108.80386 31811 ft 468 kts 55°
2026-04-21 11:13 -4.70408 108.83213 32036 ft 468 kts 63°
2026-04-21 11:13 -4.69008 108.86159 32262 ft 468 kts 63°
2026-04-21 11:13 -4.67612 108.89101 32497 ft 467 kts 64°
2026-04-21 11:13 -4.66218 108.92042 32727 ft 466 kts 64°
2026-04-21 11:14 -4.64825 108.94978 32974 ft 466 kts 64°
2026-04-21 11:14 -4.63432 108.97902 33213 ft 465 kts 63°
2026-04-21 11:14 -4.62040 109.00825 33467 ft 464 kts 63°
2026-04-21 11:14 -4.60652 109.03741 33716 ft 463 kts 63°
2026-04-21 11:15 -4.59268 109.06652 33947 ft 462 kts 63°
2026-04-21 11:15 -4.57887 109.09559 34169 ft 461 kts 63°
2026-04-21 11:15 -4.56508 109.12463 34390 ft 460 kts 64°
2026-04-21 11:15 -4.55136 109.15356 34603 ft 459 kts 63°
2026-04-21 11:16 -4.53763 109.18244 34805 ft 459 kts 63°
2026-04-21 11:16 -4.52386 109.21129 35021 ft 458 kts 63°
2026-04-21 11:16 -4.51010 109.24005 35206 ft 457 kts 63°
2026-04-21 11:16 -4.49643 109.26875 35397 ft 456 kts 63°
2026-04-21 11:17 -4.48275 109.29749 35585 ft 456 kts 64°
2026-04-21 11:17 -4.46914 109.32613 35768 ft 455 kts 64°
2026-04-21 11:17 -4.45555 109.35472 35951 ft 454 kts 64°
2026-04-21 11:17 -4.44196 109.38326 36125 ft 453 kts 63°
2026-04-21 11:18 -4.42837 109.41171 36300 ft 453 kts 63°
2026-04-21 11:18 -4.41476 109.44013 36463 ft 452 kts 63°
2026-04-21 11:18 -4.40120 109.46855 36627 ft 451 kts 64°
2026-04-21 11:18 -4.38770 109.49691 36794 ft 451 kts 64°
2026-04-21 11:19 -4.36056 109.55384 36849 ft 454 kts 63°
2026-04-21 11:19 -4.33329 109.61088 36849 ft 454 kts 64°
2026-04-21 11:20 -4.30630 109.66768 36849 ft 454 kts 64°
2026-04-21 11:20 -4.27908 109.72482 36849 ft 454 kts 64°
2026-04-21 11:21 -4.25178 109.78188 36851 ft 454 kts 64°
2026-04-21 11:21 -4.22455 109.83897 36851 ft 454 kts 64°
2026-04-21 11:22 -4.19728 109.89607 36854 ft 454 kts 64°
2026-04-21 11:22 -4.16999 109.95315 36853 ft 454 kts 64°
2026-04-21 11:23 -4.14267 110.01035 36853 ft 454 kts 64°
2026-04-21 11:23 -4.11545 110.06746 36854 ft 454 kts 64°
2026-04-21 11:24 -4.08818 110.12456 36858 ft 454 kts 64°
2026-04-21 11:24 -4.06089 110.18163 36860 ft 454 kts 64°
2026-04-21 11:25 -4.03356 110.23866 36861 ft 454 kts 64°
2026-04-21 11:25 -4.00623 110.29572 36862 ft 454 kts 64°
2026-04-21 11:26 -3.97900 110.35279 36863 ft 454 kts 64°
2026-04-21 11:26 -3.95192 110.40939 36862 ft 454 kts 64°
2026-04-21 11:27 -3.92462 110.46640 36861 ft 454 kts 64°
2026-04-21 11:27 -3.89741 110.52341 36862 ft 454 kts 64°
2026-04-21 11:28 -3.87014 110.58044 36861 ft 454 kts 64°
2026-04-21 11:28 -3.84282 110.63743 36861 ft 454 kts 64°
2026-04-21 11:29 -3.81548 110.69440 36857 ft 454 kts 64°
2026-04-21 11:29 -3.78809 110.75137 36861 ft 454 kts 64°
2026-04-21 11:30 -3.76086 110.80837 36861 ft 454 kts 64°
2026-04-21 11:30 -3.73364 110.86542 36859 ft 454 kts 64°
2026-04-21 11:31 -3.70625 110.92231 36861 ft 454 kts 64°
2026-04-21 11:31 -3.67890 110.97928 36860 ft 454 kts 64°
2026-04-21 11:32 -3.65157 111.03622 36863 ft 454 kts 64°
2026-04-21 11:32 -3.62436 111.09321 36860 ft 454 kts 64°
2026-04-21 11:33 -3.59731 111.14982 36860 ft 454 kts 64°
2026-04-21 11:33 -3.56998 111.20679 36861 ft 454 kts 64°
2026-04-21 11:34 -3.54620 111.25629 36843 ft 455 kts 65°
2026-04-21 11:34 -3.51873 111.31338 36836 ft 456 kts 64°
2026-04-21 11:35 -3.49116 111.37066 36833 ft 457 kts 64°
2026-04-21 11:35 -3.46290 111.42765 36744 ft 455 kts 64°
2026-04-21 11:36 -3.44004 111.47516 36848 ft 457 kts 65°
2026-04-21 11:36 -3.41312 111.53292 36857 ft 458 kts 65°
2026-04-21 11:37 -3.38577 111.59058 36860 ft 458 kts 65°
2026-04-21 11:37 -3.35813 111.64804 36861 ft 458 kts 64°
2026-04-21 11:38 -3.33039 111.70540 36865 ft 458 kts 64°
2026-04-21 11:38 -3.30276 111.76278 36866 ft 458 kts 65°
2026-04-21 11:39 -3.27519 111.82020 36861 ft 457 kts 65°
2026-04-21 11:39 -3.24756 111.87754 36860 ft 457 kts 65°
2026-04-21 11:40 -3.21998 111.93494 36862 ft 457 kts 65°
2026-04-21 11:40 -3.19252 111.99231 36862 ft 457 kts 65°
2026-04-21 11:41 -3.16491 112.04960 36865 ft 457 kts 65°
2026-04-21 11:41 -3.13734 112.10687 36866 ft 457 kts 65°
2026-04-21 11:42 -3.10979 112.16414 36863 ft 457 kts 65°
2026-04-21 11:42 -3.08222 112.22140 36861 ft 457 kts 65°
2026-04-21 11:43 -3.05958 112.26842 36862 ft 457 kts 65°
2026-04-21 11:43 -3.03975 112.30973 36861 ft 457 kts 65°
2026-04-21 11:44 -3.01489 112.36826 36861 ft 457 kts 69°
2026-04-21 11:44 -2.99267 112.42739 36861 ft 457 kts 70°
2026-04-21 11:45 -2.97019 112.48683 36865 ft 457 kts 69°
2026-04-21 11:45 -2.94670 112.54639 36706 ft 459 kts 69°
2026-04-21 11:46 -2.93477 112.57622 36020 ft 461 kts 69°
2026-04-21 11:46 -2.92294 112.60576 36111 ft 455 kts 69°
2026-04-21 11:46 -2.91126 112.63508 36355 ft 453 kts 69°
2026-04-21 11:46 -2.89980 112.66394 36589 ft 451 kts 69°
2026-04-21 11:47 -2.88825 112.69307 36788 ft 450 kts 69°
2026-04-21 11:47 -2.87671 112.72228 36853 ft 452 kts 69°
2026-04-21 11:47 -2.85349 112.78108 36854 ft 455 kts 69°
2026-04-21 11:48 -2.83019 112.84005 36853 ft 456 kts 69°
2026-04-21 11:48 -2.80686 112.89904 36854 ft 456 kts 69°
2026-04-21 11:49 -2.78357 112.95803 36853 ft 456 kts 69°
2026-04-21 11:49 -2.76027 113.01702 36857 ft 456 kts 69°
2026-04-21 11:50 -2.73687 113.07606 36856 ft 456 kts 69°
2026-04-21 11:50 -2.71363 113.13472 36861 ft 457 kts 69°
2026-04-21 11:51 -2.69026 113.19379 36862 ft 457 kts 69°
2026-04-21 11:51 -2.66686 113.25284 36862 ft 457 kts 69°
2026-04-21 11:52 -2.64565 113.30629 36862 ft 457 kts 69°
2026-04-21 11:52 -2.62224 113.36539 36859 ft 457 kts 69°
2026-04-21 11:53 -2.59525 113.42278 36860 ft 457 kts 57°
2026-04-21 11:53 -2.57028 113.46063 36859 ft 458 kts 57°
2026-04-21 11:54 -2.53530 113.51382 36859 ft 458 kts 57°
2026-04-21 11:54 -2.50357 113.56874 36852 ft 456 kts 66°
2026-04-21 11:55 -2.47749 113.62665 36851 ft 456 kts 66°
2026-04-21 11:55 -2.45151 113.68452 36853 ft 456 kts 66°
2026-04-21 11:56 -2.42545 113.74244 36851 ft 456 kts 66°
2026-04-21 11:56 -2.39961 113.79998 36848 ft 457 kts 66°
2026-04-21 11:57 -2.37337 113.85823 36852 ft 457 kts 66°
2026-04-21 11:57 -2.34749 113.91583 36849 ft 457 kts 66°
2026-04-21 11:58 -2.32142 113.97379 36848 ft 457 kts 66°
2026-04-21 11:58 -2.29531 114.03171 36850 ft 457 kts 66°
2026-04-21 11:59 -2.26933 114.08959 36845 ft 457 kts 66°
2026-04-21 11:59 -2.24330 114.14756 36843 ft 457 kts 66°
2026-04-21 12:00 -2.21727 114.20552 36838 ft 457 kts 66°
2026-04-21 12:00 -2.19760 114.24934 36843 ft 457 kts 66°
2026-04-21 12:01 -2.17159 114.30734 36841 ft 457 kts 66°
2026-04-21 12:01 -2.14565 114.36492 36841 ft 457 kts 66°
2026-04-21 12:02 -2.10627 114.45225 36838 ft 457 kts 66°
2026-04-21 12:03 -2.08017 114.51027 36841 ft 458 kts 66°
2026-04-21 12:03 -2.05423 114.56790 36838 ft 458 kts 66°
2026-04-21 12:04 -2.02811 114.62600 36835 ft 458 kts 66°
2026-04-21 12:04 -2.00195 114.68408 36836 ft 458 kts 66°
2026-04-21 12:05 -1.97576 114.74225 36842 ft 459 kts 66°
2026-04-21 12:05 -1.94958 114.80046 36844 ft 459 kts 66°
2026-04-21 12:06 -1.92333 114.85873 36842 ft 459 kts 66°
2026-04-21 12:06 -1.89706 114.91695 36841 ft 460 kts 66°
2026-04-21 12:07 -1.87083 114.97526 36847 ft 460 kts 66°
2026-04-21 12:07 -1.84465 115.03352 36850 ft 460 kts 66°
2026-04-21 12:08 -1.81846 115.09151 36853 ft 460 kts 66°
2026-04-21 12:08 -1.79208 115.15024 36855 ft 460 kts 66°
2026-04-21 12:09 -1.76577 115.20858 36859 ft 460 kts 66°
2026-04-21 12:09 -1.73959 115.26655 36859 ft 460 kts 66°
2026-04-21 12:10 -1.71330 115.32489 36861 ft 460 kts 66°
2026-04-21 12:10 -1.68707 115.38320 36867 ft 460 kts 66°
2026-04-21 12:11 -1.66079 115.44151 36866 ft 460 kts 66°
2026-04-21 12:11 -1.63450 115.49981 36867 ft 460 kts 66°
2026-04-21 12:12 -1.60822 115.55815 36871 ft 460 kts 66°
2026-04-21 12:12 -1.58190 115.61635 36874 ft 460 kts 66°
2026-04-21 12:13 -1.55561 115.67469 36884 ft 460 kts 66°
2026-04-21 12:13 -1.52939 115.73298 36886 ft 460 kts 66°
2026-04-21 12:14 -1.50308 115.79127 36889 ft 460 kts 66°
2026-04-21 12:14 -1.47671 115.84958 36889 ft 460 kts 66°
2026-04-21 12:15 -1.45043 115.90791 36891 ft 460 kts 66°
2026-04-21 12:15 -1.42416 115.96629 36891 ft 461 kts 66°
2026-04-21 12:16 -1.39785 116.02466 36889 ft 460 kts 66°
2026-04-21 12:16 -1.37170 116.08264 36890 ft 460 kts 66°
2026-04-21 12:17 -1.34534 116.14092 36887 ft 460 kts 66°
2026-04-21 12:17 -1.31907 116.19919 36888 ft 460 kts 66°
2026-04-21 12:18 -1.29278 116.25744 36886 ft 460 kts 66°
2026-04-21 12:18 -1.26646 116.31579 36887 ft 460 kts 66°
2026-04-21 12:19 -1.24014 116.37417 36886 ft 460 kts 66°
2026-04-21 12:19 -1.21383 116.43254 36884 ft 461 kts 65°
2026-04-21 12:20 -1.18747 116.49088 36882 ft 461 kts 65°
2026-04-21 12:20 -1.16114 116.54922 36880 ft 460 kts 65°
2026-04-21 12:21 -1.13483 116.60751 36875 ft 460 kts 65°
2026-04-21 12:21 -1.11295 116.65589 36870 ft 460 kts 65°
2026-04-21 12:22 -1.08664 116.71411 36864 ft 460 kts 65°
2026-04-21 12:22 -1.05607 116.78183 36865 ft 460 kts 65°
2026-04-21 12:23 -1.03405 116.83065 36863 ft 460 kts 65°
2026-04-21 12:23 -1.00780 116.88883 36864 ft 459 kts 65°
2026-04-21 12:24 -0.98151 116.94703 36870 ft 459 kts 65°
2026-04-21 12:24 -0.95565 117.00499 36876 ft 459 kts 66°
2026-04-21 12:25 -0.93138 117.06404 36880 ft 459 kts 68°
2026-04-21 12:25 -0.90775 117.12328 36876 ft 459 kts 68°
2026-04-21 12:26 -0.88376 117.18236 36879 ft 458 kts 68°
2026-04-21 12:26 -0.85950 117.24124 36877 ft 458 kts 68°
2026-04-21 12:27 -0.83519 117.30009 36878 ft 458 kts 68°
2026-04-21 12:27 -0.81216 117.35602 36878 ft 458 kts 68°
2026-04-21 12:28 -0.78805 117.41484 36879 ft 458 kts 68°
2026-04-21 12:28 -0.76401 117.47334 36880 ft 457 kts 68°
2026-04-21 12:29 -0.73982 117.53208 36882 ft 457 kts 68°
2026-04-21 12:29 -0.71570 117.59081 36880 ft 457 kts 68°
2026-04-21 12:30 -0.69160 117.64958 36882 ft 457 kts 68°
2026-04-21 12:30 -0.66746 117.70825 36878 ft 456 kts 67°
2026-04-21 12:31 -0.64331 117.76693 36875 ft 456 kts 68°
2026-04-21 12:31 -0.61922 117.82556 36878 ft 456 kts 67°
2026-04-21 12:32 -0.59519 117.88416 36877 ft 456 kts 67°
2026-04-21 12:32 -0.57106 117.94284 36877 ft 456 kts 67°
2026-04-21 12:33 -0.54697 118.00149 36876 ft 456 kts 67°
2026-04-21 12:33 -0.52953 118.04338 36875 ft 456 kts 67°
2026-04-21 12:34 -0.50546 118.10201 36879 ft 456 kts 68°
2026-04-21 12:34 -0.48163 118.16029 36874 ft 456 kts 68°
2026-04-21 12:35 -0.45749 118.21909 36872 ft 456 kts 67°
2026-04-21 12:35 -0.43339 118.27772 36867 ft 457 kts 68°
2026-04-21 12:36 -0.40925 118.33652 36867 ft 457 kts 68°
2026-04-21 12:36 -0.38507 118.39523 36866 ft 457 kts 68°
2026-04-21 12:37 -0.36094 118.45398 36868 ft 457 kts 68°
2026-04-21 12:37 -0.33841 118.51343 36867 ft 458 kts 70°
2026-04-21 12:38 -0.31701 118.57337 36874 ft 458 kts 70°
2026-04-21 12:38 -0.30058 118.61909 36874 ft 458 kts 70°
2026-04-21 12:39 -0.27976 118.67589 36877 ft 458 kts 70°
2026-04-21 12:39 -0.25762 118.73560 36875 ft 458 kts 70°
2026-04-21 12:40 -0.23550 118.79538 36882 ft 458 kts 70°
2026-04-21 12:40 -0.21349 118.85514 36880 ft 458 kts 70°
2026-04-21 12:41 -0.19153 118.91480 36883 ft 457 kts 70°
2026-04-21 12:41 -0.16973 118.97409 36883 ft 457 kts 70°
2026-04-21 12:42 -0.14780 119.03359 36884 ft 456 kts 70°
2026-04-21 12:42 -0.12587 119.09304 36879 ft 456 kts 70°
2026-04-21 12:43 -0.10389 119.15247 36881 ft 456 kts 70°
2026-04-21 12:43 -0.08202 119.21192 36879 ft 455 kts 70°
2026-04-21 12:44 -0.06218 119.26586 36879 ft 455 kts 70°
2026-04-21 12:44 -0.04128 119.32250 36876 ft 455 kts 70°
2026-04-21 12:45 -0.01936 119.38190 36872 ft 455 kts 70°
2026-04-21 12:45 0.00249 119.44131 36875 ft 456 kts 70°
2026-04-21 12:46 0.02443 119.50076 36873 ft 456 kts 70°
2026-04-21 12:46 0.04394 119.56099 36875 ft 456 kts 75°
2026-04-21 12:47 0.05992 119.62239 36877 ft 457 kts 76°
2026-04-21 12:47 0.07545 119.68358 36881 ft 458 kts 75°
2026-04-21 12:48 0.09207 119.74495 36885 ft 458 kts 75°
2026-04-21 12:48 0.10913 119.80626 36886 ft 458 kts 75°
2026-04-21 12:49 0.12613 119.86759 36892 ft 458 kts 75°
2026-04-21 12:49 0.14305 119.92900 36896 ft 458 kts 75°
2026-04-21 12:50 0.15988 119.99047 36899 ft 458 kts 75°
2026-04-21 12:50 0.17516 120.04629 36903 ft 458 kts 75°
2026-04-21 12:51 0.19199 120.10772 36901 ft 458 kts 75°
2026-04-21 12:51 0.20883 120.16914 36903 ft 458 kts 75°
2026-04-21 12:52 0.22557 120.23014 36910 ft 458 kts 75°
2026-04-21 12:52 0.24246 120.29149 36910 ft 458 kts 75°
2026-04-21 12:53 0.25907 120.35186 36910 ft 458 kts 75°
2026-04-21 12:53 0.27552 120.41157 36910 ft 458 kts 75°
2026-04-21 12:54 0.29233 120.47293 36914 ft 458 kts 75°
2026-04-21 12:54 0.30910 120.53428 36913 ft 458 kts 75°
2026-04-21 12:55 0.32599 120.59559 36909 ft 457 kts 75°
2026-04-21 12:55 0.34284 120.65688 36905 ft 457 kts 75°
2026-04-21 12:56 0.35959 120.71817 36907 ft 457 kts 75°
2026-04-21 12:56 0.37640 120.77944 36910 ft 457 kts 75°
2026-04-21 12:57 0.39328 120.84070 36909 ft 457 kts 75°
2026-04-21 12:57 0.40997 120.90163 36912 ft 457 kts 75°
2026-04-21 12:58 0.42402 120.95295 36917 ft 457 kts 75°
2026-04-21 12:58 0.43945 121.00950 36922 ft 457 kts 75°
2026-04-21 12:59 0.45626 121.07064 36922 ft 456 kts 75°
2026-04-21 12:59 0.47223 121.12880 36925 ft 456 kts 75°
2026-04-21 13:00 0.48898 121.18983 36927 ft 455 kts 75°
2026-04-21 13:00 0.50575 121.25080 36929 ft 455 kts 75°
2026-04-21 13:01 0.52249 121.31170 36931 ft 454 kts 75°
2026-04-21 13:01 0.53919 121.37254 36926 ft 454 kts 75°
2026-04-21 13:02 0.55582 121.43342 36926 ft 454 kts 75°
2026-04-21 13:02 0.58082 121.52478 36928 ft 454 kts 75°
2026-04-21 13:03 0.59752 121.58571 36929 ft 454 kts 75°
2026-04-21 13:03 0.61425 121.64652 36921 ft 454 kts 75°
2026-04-21 13:04 0.63100 121.70735 36926 ft 454 kts 75°
2026-04-21 13:04 0.64775 121.76818 36938 ft 454 kts 75°
2026-04-21 13:05 0.66432 121.82871 36941 ft 454 kts 75°
2026-04-21 13:05 0.68098 121.88963 36939 ft 454 kts 75°
2026-04-21 13:06 0.69765 121.95055 36937 ft 454 kts 75°
2026-04-21 13:06 0.71434 122.01146 36938 ft 454 kts 75°
2026-04-21 13:07 0.73103 122.07229 36937 ft 454 kts 75°
2026-04-21 13:07 0.74770 122.13310 36938 ft 454 kts 75°
2026-04-21 13:08 0.75846 122.17247 36936 ft 454 kts 75°
2026-04-21 13:08 0.77418 122.23002 36935 ft 454 kts 75°
2026-04-21 13:09 0.79087 122.29081 36935 ft 454 kts 75°
2026-04-21 13:09 0.80758 122.35164 36933 ft 454 kts 75°
2026-04-21 13:10 0.82423 122.41247 36934 ft 454 kts 75°
2026-04-21 13:10 0.83808 122.46301 36932 ft 454 kts 75°
2026-04-21 13:11 0.85403 122.52116 36928 ft 454 kts 75°
2026-04-21 13:11 0.87073 122.58196 36931 ft 453 kts 75°
2026-04-21 13:12 0.88738 122.64275 36932 ft 453 kts 75°
2026-04-21 13:12 0.90403 122.70349 36931 ft 453 kts 75°
2026-04-21 13:13 0.92071 122.76421 36929 ft 453 kts 75°
2026-04-21 13:13 0.93740 122.82494 36929 ft 453 kts 75°
2026-04-21 13:14 0.95404 122.88562 36930 ft 453 kts 75°
2026-04-21 13:14 0.97071 122.94631 36931 ft 453 kts 75°
2026-04-21 13:15 0.98733 123.00697 36925 ft 453 kts 75°
2026-04-21 13:15 1.00393 123.06764 36929 ft 453 kts 75°
2026-04-21 13:16 1.02055 123.12832 36933 ft 453 kts 75°
2026-04-21 13:16 1.03716 123.18896 36928 ft 453 kts 75°
2026-04-21 13:17 1.05474 123.24932 36923 ft 453 kts 69°
2026-04-21 13:17 1.08629 123.30310 36927 ft 454 kts 52°
2026-04-21 13:18 1.12536 123.35259 36875 ft 453 kts 52°
2026-04-21 13:18 1.14477 123.37725 36239 ft 452 kts 52°
2026-04-21 13:18 1.16410 123.40186 35790 ft 445 kts 52°
2026-04-21 13:19 1.18303 123.42598 35471 ft 437 kts 52°
2026-04-21 13:19 1.20163 123.44971 35043 ft 432 kts 52°
2026-04-21 13:19 1.21905 123.47416 34100 ft 438 kts 63°
2026-04-21 13:19 1.22971 123.50299 32897 ft 449 kts 79°
2026-04-21 13:20 1.23211 123.53421 31844 ft 455 kts 90°
2026-04-21 13:20 1.23207 123.56605 30805 ft 460 kts 90°
2026-04-21 13:20 1.23191 123.59815 29875 ft 463 kts 90°
2026-04-21 13:20 1.23165 123.62982 29660 ft 448 kts 90°
2026-04-21 13:21 1.23136 123.66039 29522 ft 432 kts 90°
2026-04-21 13:21 1.23110 123.68991 29381 ft 417 kts 90°
2026-04-21 13:21 1.23090 123.71842 29249 ft 404 kts 90°
2026-04-21 13:21 1.23074 123.74611 29052 ft 393 kts 90°
2026-04-21 13:22 1.23062 123.77322 28690 ft 388 kts 90°
2026-04-21 13:22 1.23051 123.80003 28122 ft 386 kts 90°
2026-04-21 13:22 1.23038 123.82736 26651 ft 401 kts 90°
2026-04-21 13:22 1.23022 123.85569 25106 ft 413 kts 90°
2026-04-21 13:23 1.23004 123.88470 23636 ft 420 kts 90°
2026-04-21 13:23 1.22983 123.91412 21931 ft 427 kts 90°
2026-04-21 13:23 1.22961 123.94377 20530 ft 426 kts 90°
2026-04-21 13:23 1.22939 123.97326 19305 ft 422 kts 90°
2026-04-21 13:24 1.22921 124.00243 18186 ft 417 kts 90°
2026-04-21 13:24 1.22904 124.03120 16964 ft 411 kts 90°
2026-04-21 13:24 1.22887 124.05954 15863 ft 405 kts 90°
2026-04-21 13:24 1.22870 124.08743 14808 ft 398 kts 90°
2026-04-21 13:25 1.22851 124.11485 13899 ft 392 kts 90°
2026-04-21 13:25 1.22835 124.14211 13611 ft 393 kts 90°
2026-04-21 13:25 1.22817 124.16942 13357 ft 394 kts 90°
2026-04-21 13:25 1.22802 124.19677 13103 ft 393 kts 90°
2026-04-21 13:26 1.22785 124.22397 12860 ft 391 kts 90°
2026-04-21 13:26 1.22769 124.25107 12616 ft 389 kts 90°
2026-04-21 13:26 1.22754 124.27808 12369 ft 388 kts 90°
2026-04-21 13:26 1.22738 124.30493 12127 ft 386 kts 90°
2026-04-21 13:27 1.22723 124.33140 11886 ft 374 kts 90°
2026-04-21 13:27 1.22708 124.35695 11646 ft 360 kts 90°
2026-04-21 13:27 1.22692 124.38155 11409 ft 348 kts 90°
2026-04-21 13:27 1.22674 124.40533 11178 ft 337 kts 90°
2026-04-21 13:28 1.22658 124.42846 10936 ft 327 kts 90°
2026-04-21 13:28 1.22644 124.45064 10722 ft 319 kts 90°
2026-04-21 13:28 1.22630 124.47250 10486 ft 311 kts 90°
2026-04-21 13:28 1.22614 124.49409 10258 ft 303 kts 90°
2026-04-21 13:29 1.22599 124.51463 10030 ft 296 kts 90°
2026-04-21 13:29 1.22588 124.53495 9933 ft 289 kts 90°
2026-04-21 13:29 1.22608 124.55508 9901 ft 289 kts 85°
2026-04-21 13:29 1.22948 124.57470 9529 ft 287 kts 78°
2026-04-21 13:30 1.23359 124.59414 9141 ft 285 kts 78°
2026-04-21 13:30 1.23768 124.61348 8769 ft 284 kts 78°
2026-04-21 13:30 1.24172 124.63273 8423 ft 282 kts 78°
2026-04-21 13:30 1.24575 124.65181 8110 ft 278 kts 78°
2026-04-21 13:31 1.24975 124.67078 7992 ft 279 kts 78°
2026-04-21 13:31 1.25375 124.68975 7988 ft 278 kts 78°
2026-04-21 13:31 1.25774 124.70871 7984 ft 279 kts 78°
2026-04-21 13:31 1.26172 124.72773 7988 ft 279 kts 78°
2026-04-21 13:32 1.26544 124.74674 7987 ft 279 kts 83°
2026-04-21 13:32 1.26610 124.76621 7614 ft 284 kts 90°
2026-04-21 13:32 1.26587 124.78580 7075 ft 279 kts 90°
2026-04-21 13:32 1.26556 124.80510 6422 ft 277 kts 90°
2026-04-21 13:33 1.26525 124.82393 6118 ft 263 kts 90°
2026-04-21 13:33 1.26498 124.84143 5974 ft 241 kts 90°
2026-04-21 13:33 1.26474 124.85754 5870 ft 225 kts 90°
2026-04-21 13:33 1.26454 124.87298 5773 ft 222 kts 90°
2026-04-21 13:34 1.26433 124.88835 5671 ft 220 kts 90°
2026-04-21 13:34 1.26447 124.90367 5568 ft 222 kts 81°
2026-04-21 13:34 1.27144 124.91684 5441 ft 220 kts 41°
2026-04-21 13:34 1.28494 124.92244 5149 ft 212 kts
2026-04-21 13:35 1.29959 124.92292 4876 ft 208 kts
2026-04-21 13:35 1.31389 124.92224 4599 ft 205 kts 360°
2026-04-21 13:35 1.32804 124.92158 4349 ft 199 kts
2026-04-21 13:35 1.34131 124.92119 4230 ft 182 kts
2026-04-21 13:36 1.35334 124.92104 4184 ft 165 kts
2026-04-21 13:36 1.36450 124.92106 4191 ft 157 kts
2026-04-21 13:36 1.37543 124.92109 4074 ft 155 kts
2026-04-21 13:36 1.38621 124.92113 3835 ft 154 kts
2026-04-21 13:37 1.39688 124.92106 3592 ft 153 kts
2026-04-21 13:37 1.40752 124.92115 3311 ft 153 kts
2026-04-21 13:37 1.41814 124.92131 3009 ft 153 kts
2026-04-21 13:37 1.42877 124.92154 2708 ft 151 kts
2026-04-21 13:38 1.43924 124.92190 2432 ft 151 kts
2026-04-21 13:38 1.44969 124.92258 2212 ft 150 kts
2026-04-21 13:38 1.46015 124.92322 1988 ft 151 kts
2026-04-21 13:38 1.47065 124.92368 1783 ft 152 kts
2026-04-21 13:39 1.48117 124.92394 1499 ft 151 kts
2026-04-21 13:39 1.49163 124.92427 1336 ft 152 kts
2026-04-21 13:39 1.50212 124.92479 1121 ft 150 kts
2026-04-21 13:39 1.51256 124.92512 865 ft 148 kts
2026-04-21 13:40 1.52294 124.92548 653 ft 149 kts
2026-04-21 13:40 1.53327 124.92575 440 ft 149 kts
2026-04-21 13:40 1.54341 124.92619 337 ft 135 kts
2026-04-21 13:40 1.55097 124.92638 337 ft 83 kts
2026-04-21 13:41 1.55485 124.92652 338 ft 44 kts
2026-04-21 13:41 1.55657 124.92618 335 ft 17 kts 299°
2026-04-21 13:41 1.55663 124.92514 336 ft 14 kts 247°
2026-04-21 13:41 1.55582 124.92485 336 ft 13 kts 183°
2026-04-21 13:42 1.55493 124.92484 336 ft 13 kts 180°
2026-04-21 13:42 1.55399 124.92482 336 ft 14 kts 181°
2026-04-21 13:42 1.55293 124.92479 334 ft 16 kts 183°
2026-04-21 13:42 1.55172 124.92476 336 ft 19 kts 181°
2026-04-21 13:43 1.55037 124.92469 336 ft 21 kts 181°
2026-04-21 13:43 1.54883 124.92465 335 ft 23 kts 181°
2026-04-21 13:43 1.54717 124.92459 334 ft 25 kts 182°
2026-04-21 13:43 1.54540 124.92455 335 ft 26 kts 182°
2026-04-21 13:44 1.54380 124.92423 336 ft 23 kts 201°
2026-04-21 13:44 1.54228 124.92416 333 ft 16 kts 179°
2026-04-21 13:44 1.54146 124.92394 336 ft 10 kts 266°
2026-04-21 13:44 1.54149 124.92349 335 ft 6 kts 273°
2026-04-21 13:45 1.54150 124.92336 334 ft 0 kts 271°